THORAD DELTA 1 DEB, 42616

Orbit data source: Space-Track

THORAD DELTA 1 DEB, 42616 is space debris in LEO originally from a launch on Fri, 15 Nov 1974 UTC launched from the Air Force Western Test Range (AFWTR). Debris objects in space refer to the collection of defunct objects orbiting the Earth. Examples of debris include non-operational satellites, rocket bodies, and fragments generated from explosions, collisions, or faulty payload assembly.

Loading next visibility...
Identifier
42616, 1974-089GH
Orbit
LEO
Country
Flag of USUS
Related business
Manufacturer
Unknown
Mission
Spacecraft
Bus & Motor
Unknown
Mass
Unknown
Launch date (UTC)
1974-11-15 (51 years ago)
Launch vehicle
Unknown
Launch site
Air Force Western Test Range (AFWTR)
Object type
Payload
Rocket body
Debris
Shape & HBR
Unknown shape, 0.1 m
Radar Cross Section
Small (<0.1 m²)

Expand to show TLE details & history
Last TLE update: 22 hours ago

TLE from 22 hours ago
0 THORAD DELTA 1 DEB
1 42616U 74089GH  26103.61450250 -.00000095  00000-0 -90625-3 0  9993
2 42616 101.4362  43.3503 0497396 229.3655 317.3233 11.58982925882826
Epoch: 2026-04-13T14:44Z
TLE epoch observation values (Epoch: 2026-04-13T14:44:53.015Z)
Latitude
-2.70841°
Longitude
159.7812°
Altitude
1,581.015 km
Speed
7.202 km/s
True Right ascension
14h 51m 13s
True Declination
-2° 41' 38"
Sunlit
Object was in full shadow at epoch
Visualization orbit readout
Latitude
Unknown
Longitude
Unknown
Altitude
Unknown
Speed
Unknown
Apparent Right ascension
Unknown
Apparent Declination
Unknown
Sunlit
N/A
Visualization observer readout
Local Sidereal Time
18:49:06
Azimuth
Unknown
Elevation
Unknown
Doppler factor
Unknown
Orbital elements
Apogee altitude
2,277.676 km
Perigee altitude
1,457.403 km
Semi-major axis
8,245.677 km
Eccentricity
0.04974
Inclination
101.4362°
RAAN
43.3503°
Arg. of periapsis
229.3655°
True anomaly
313.27836°
Mean anomaly
317.3233°
Eccentric anomaly
315.3194°
Mean motion
2.8987 °/min
Orbital period
124.19 mins
BSTAR
-0.00090625
Loading maneuver chart data...
Computing Atmospheric mass density...

Documentation

Showing up to 5 results
|